Simultaneous Nadir Overpasses (SNOs) Predictions

Prediction of SNOs between GOES-14 and AQUA Satellite Orbit:

Table of predicted SNOs for the next 14.0 days since TLE Epoch: 1/25/2019
Index Date Time (GOES-14) GOES-14 Lat,Lon AQUA Lat,Lon Distance(km) Time Diff (sec)
1 01/26/2019 08:14:51 -0.02,-104.34 -0.87,-100.25 464.78 80
2 01/26/2019 20:36:15 0.02,-104.11 -0.29,-105.43 150.77 80
3 01/28/2019 20:26:45 0.02,-104.12 0.38,-102.48 186.60 80
4 01/29/2019 08:45:20 -0.01,-104.36 0.67,-107.65 373.92 80
5 01/31/2019 08:33:09 0.01,-104.37 0.06,-104.69 36.24 80
6 02/02/2019 08:23:38 0.01,-104.38 -0.56,-101.73 301.07 80
7 02/02/2019 20:45:02 -0.01,-104.15 -0.60,-106.91 314.40 80
8 02/04/2019 20:30:11 -0.00,-104.16 0.02,-103.95 23.02 80
9 02/06/2019 20:18:01 -0.00,-104.17 0.70,-101.01 360.47 80
10 02/07/2019 08:39:17 0.00,-104.41 0.35,-106.17 200.26 80




NCC Satellite Simultaneous Nadir Overpasses (SNOs) Prediction Service
